Manning, SC

12:34 PM EDT on September 18, 2019 (GMT -0400)
Santee Cooper Regional

Weather History for KMNI - August, 2019

Change the Weather History Date:

Monday, August 19, 2019

  Actual Average (WUND) Record (WUND)
Temperature  
Mean Temperature 81 °F -  
Max Temperature 89 °F - - (-1)
Min Temperature 73 °F - - (-1)
Cooling Degree Days 16    
Growing Degree Days 31 (Base 50)    
Moisture  
Dew Point 73 °F    
Average Humidity 80    
Maximum Humidity 100    
Minimum Humidity 52    
Precipitation  
Precipitation 0.00 in - - ()
Sea Level Pressure  
Sea Level Pressure 30.07 in    
Wind  
Wind Speed 4 mph (SW)    
Max Wind Speed 9 mph    
Max Gust Speed -    
Visibility 10 miles    
Events Rain    
Averages and records for this station are not official NWS values.
T = Trace of Precipitation, MM = Missing Value Source: NWS Daily Summary

Daily Weather History Graph

Daily Weather History Graph

Search for Another Location

Airport or City:

Astronomy

Aug. 19, 2019 Rise Set
Actual Time 6:45 AM EDT 8:02 PM EDT
Civil Twilight 6:19 AM EDT 8:28 PM EDT
Nautical Twilight 5:48 AM EDT 8:59 PM EDT
Astronomical Twilight 5:16 AM EDT 9:31 PM EDT
Moon 10:34 PM EDT (8/19) 10:16 AM EDT (8/19)
Length of Visible Light 14h 09m
Length of Day
13h 17m
Waning Gibbous, 85% of the Moon is Illuminated
Aug 19
Waning Gibbous
Aug 23
Last Quarter
Aug 30
New
Sep 5
First Quarter
Sep 14
Full

Hourly Weather History & Observations

Time (EDT) Temp. Heat Index Dew Point Humidity Pressure Visibility Wind Dir Wind Speed Gust Speed Precip Events Conditions
12:15 AM 78.8 °F - 73.4 °F 83% 30.04 in 10.0 mi SSW 3.5 mph - N/A   Clear
12:35 AM 77.0 °F - 73.4 °F 89% 30.04 in 10.0 mi Calm Calm - N/A   Clear
12:55 AM 78.8 °F - 73.4 °F 83% 30.05 in 10.0 mi SW 4.6 mph - N/A   Mostly Cloudy
1:15 AM 78.8 °F - 73.4 °F 83% 30.05 in 10.0 mi SW 4.6 mph - N/A   Mostly Cloudy
1:35 AM 78.8 °F - 73.4 °F 83% 30.05 in 10.0 mi SW 3.5 mph - N/A   Scattered Clouds
1:55 AM 77.0 °F - 73.4 °F 89% 30.05 in 10.0 mi SSW 4.6 mph - N/A   Clear
2:15 AM 77.0 °F - 73.4 °F 89% 30.05 in 10.0 mi SW 3.5 mph - N/A   Clear
2:35 AM 77.0 °F - 73.4 °F 89% 30.05 in 10.0 mi Calm Calm - N/A   Clear
2:55 AM 77.0 °F - 73.4 °F 89% 30.05 in 10.0 mi Calm Calm - N/A   Clear
3:15 AM 77.0 °F - 73.4 °F 89% 30.04 in 10.0 mi Calm Calm - N/A   Clear
3:55 AM 77.0 °F - 73.4 °F 89% 30.05 in 10.0 mi Calm Calm - N/A   Clear
4:15 AM 75.2 °F - 73.4 °F 94% 30.05 in 10.0 mi SW 5.8 mph - N/A   Clear
4:35 AM 75.2 °F - 73.4 °F 94% 30.05 in 10.0 mi SW 5.8 mph - N/A   Clear
4:55 AM 75.2 °F - 73.4 °F 94% 30.05 in 10.0 mi West 3.5 mph - N/A   Clear
5:15 AM 73.4 °F - 73.4 °F 100% 30.04 in 10.0 mi WSW 4.6 mph - N/A   Clear
5:55 AM 73.4 °F - 73.4 °F 100% 30.05 in 10.0 mi WSW 3.5 mph - N/A   Mostly Cloudy
6:15 AM 73.4 °F - 71.6 °F 94% 30.06 in 10.0 mi WSW 4.6 mph - N/A   Mostly Cloudy
6:35 AM 73.4 °F - 71.6 °F 94% 30.06 in 10.0 mi Calm Calm - N/A   Mostly Cloudy
6:55 AM 73.4 °F - 71.6 °F 94% 30.07 in 10.0 mi Calm Calm - N/A   Overcast
7:15 AM 73.4 °F - 71.6 °F 94% 30.08 in 10.0 mi WSW 3.5 mph - N/A   Overcast
7:35 AM 73.4 °F - 71.6 °F 94% 30.08 in 10.0 mi West 3.5 mph - N/A   Overcast
7:55 AM 73.4 °F - 71.6 °F 94% 30.09 in 10.0 mi WSW 3.5 mph - N/A   Overcast
8:15 AM 73.4 °F - 71.6 °F 94% 30.09 in 10.0 mi West 3.5 mph - N/A   Overcast
8:35 AM 73.4 °F - 73.4 °F 100% 30.09 in 10.0 mi West 4.6 mph - N/A   Overcast
8:55 AM 75.2 °F - 73.4 °F 94% 30.10 in 10.0 mi Calm Calm - N/A   Overcast
9:15 AM 77.0 °F - 73.4 °F 89% 30.10 in 10.0 mi Calm Calm - N/A   Overcast
9:55 AM 77.0 °F - 73.4 °F 89% 30.10 in 10.0 mi SW 3.5 mph - N/A   Overcast
10:15 AM 77.0 °F - 73.4 °F 89% 30.10 in 10.0 mi SW 3.5 mph - N/A   Overcast
10:35 AM 78.8 °F - 73.4 °F 83% 30.10 in 10.0 mi SSW 3.5 mph - N/A   Overcast
10:55 AM 78.8 °F - 73.4 °F 83% 30.11 in 10.0 mi SW 5.8 mph - N/A   Overcast
11:15 AM 78.8 °F - 73.4 °F 83% 30.10 in 10.0 mi WSW 4.6 mph - N/A   Mostly Cloudy
11:35 AM 78.8 °F - 73.4 °F 83% 30.10 in 10.0 mi SW 6.9 mph - N/A   Mostly Cloudy
11:55 AM 80.6 °F 85.4 °F 73.4 °F 79% 30.10 in 10.0 mi WSW 6.9 mph - N/A   Scattered Clouds
12:15 PM 80.6 °F 85.4 °F 73.4 °F 79% 30.10 in 10.0 mi SW 5.8 mph - N/A   Scattered Clouds
12:35 PM 82.4 °F 88.2 °F 73.4 °F 74% 30.10 in 10.0 mi SW 6.9 mph - N/A   Clear
12:55 PM 82.4 °F 88.2 °F 73.4 °F 74% 30.10 in 10.0 mi SW 8.1 mph - N/A   Clear
1:15 PM 84.2 °F 90.9 °F 73.4 °F 70% 30.09 in 10.0 mi SSW 6.9 mph - N/A   Clear
1:35 PM 86.0 °F 93.4 °F 73.4 °F 66% 30.09 in 10.0 mi SSW 5.8 mph - N/A   Clear
2:15 PM 86.0 °F 93.4 °F 73.4 °F 66% 30.08 in 10.0 mi SSW 6.9 mph - N/A   Clear
2:35 PM 87.8 °F 93.8 °F 71.6 °F 58% 30.07 in 10.0 mi SW 6.9 mph - N/A   Clear
2:55 PM 87.8 °F 93.8 °F 71.6 °F 58% 30.06 in 10.0 mi SW 5.8 mph - N/A   Clear
3:15 PM 87.8 °F 93.8 °F 71.6 °F 58% 30.05 in 10.0 mi SW 9.2 mph - N/A   Scattered Clouds
3:35 PM 87.8 °F 95.6 °F 73.4 °F 62% 30.04 in 10.0 mi SW 9.2 mph - N/A   Scattered Clouds
3:55 PM 89.6 °F 96.2 °F 71.6 °F 55% 30.03 in 10.0 mi SW 8.1 mph - N/A   Clear
4:15 PM 87.8 °F 93.8 °F 71.6 °F 58% 30.03 in 10.0 mi South 5.8 mph - N/A   Clear
4:35 PM 89.6 °F 96.2 °F 71.6 °F 55% 30.02 in 10.0 mi WSW 8.1 mph - N/A   Clear
4:55 PM 89.6 °F 96.2 °F 71.6 °F 55% 30.02 in 10.0 mi SW 8.1 mph - N/A   Clear
5:15 PM 89.6 °F 94.7 °F 69.8 °F 52% 30.02 in 10.0 mi South 6.9 mph - N/A   Clear
5:35 PM 87.8 °F 93.8 °F 71.6 °F 58% 30.02 in 10.0 mi SSW 6.9 mph - N/A   Clear
5:55 PM 86.0 °F 91.8 °F 71.6 °F 62% 30.02 in 10.0 mi SSW 8.1 mph - N/A   Clear
6:15 PM 84.2 °F 89.6 °F 71.6 °F 66% 30.03 in 10.0 mi SSW 5.8 mph - N/A   Clear
6:35 PM 84.2 °F 90.9 °F 73.4 °F 70% 30.03 in 10.0 mi SSW 4.6 mph - N/A   Clear
6:55 PM 82.4 °F 88.2 °F 73.4 °F 74% 30.03 in 10.0 mi SSW 4.6 mph - N/A   Clear
7:15 PM 82.4 °F 87.2 °F 71.6 °F 70% 30.04 in 10.0 mi SW 5.8 mph - N/A   Clear
7:35 PM 82.4 °F 88.2 °F 73.4 °F 74% 30.04 in 10.0 mi SSW 6.9 mph - N/A   Clear
7:55 PM 82.4 °F 88.2 °F 73.4 °F 74% 30.05 in 10.0 mi SSW 5.8 mph - N/A   Clear
8:15 PM 82.4 °F 88.2 °F 73.4 °F 74% 30.05 in 10.0 mi SSW 6.9 mph - N/A   Clear
8:35 PM 82.4 °F 88.2 °F 73.4 °F 74% 30.06 in 10.0 mi SSW 4.6 mph - N/A   Clear
8:55 PM 80.6 °F 85.4 °F 73.4 °F 79% 30.08 in 10.0 mi SSW 5.8 mph - N/A   Clear
9:15 PM 80.6 °F 85.4 °F 73.4 °F 79% 30.08 in 10.0 mi SSW 4.6 mph - N/A   Light Drizzle
9:35 PM 80.6 °F 85.4 °F 73.4 °F 79% 30.09 in 10.0 mi SW 4.6 mph - N/A Rain Light Rain
9:55 PM 78.8 °F - 73.4 °F 83% 30.10 in 10.0 mi SW 3.5 mph - N/A Rain Light Rain
10:15 PM 78.8 °F - 73.4 °F 83% 30.11 in 10.0 mi Calm Calm - N/A   Clear
10:35 PM 78.8 °F - 73.4 °F 83% 30.11 in 10.0 mi Calm Calm - N/A   Light Drizzle
10:55 PM 78.8 °F - 73.4 °F 83% 30.11 in 10.0 mi SSW 3.5 mph - N/A   Clear
11:35 PM 78.8 °F - 73.4 °F 83% 30.11 in 10.0 mi SSW 3.5 mph - N/A   Clear
11:55 PM 78.8 °F - 73.4 °F 83% 30.11 in 10.0 mi SSW 5.8 mph - N/A   Clear